sat.trackr.live / text

‹ back to catalog

STARLINK-11395 [DTC]

NORAD 61951 · 2024-209N

PAYLOAD ACTIVE UNKNOWN

§ Identity

Operator
Country
US
Launch date
2024-11-14
Launch site
AFWTR
Launch vehicle
Mass (kg)
RCS (m²)

Purposes: comms

External: N2YO · Heavens-Above · Gunter

§ Orbital elements

Epoch: 2026-05-24T23:56:08.267424Z

Period
91.73 min
Inclination
53.1573°
Eccentricity
0.0000818
Mean motion
15.69769488 rev/d
Perigee alt
359.0 km
Apogee alt
360.1 km
Semi-major
6,737.7 km
B*
1.4080e-3
RAAN
355.0338°
Arg perigee
79.8279°
Mean anomaly
280.2831°
Rev number
8,866

§ Raw data

STARLINK-11395 [DTC]1 61951U 24209N   26144.99731791  .00174046  00000+0  14080-2 0  99982 61951  53.1573 355.0338 0000818  79.8279 280.2831 15.69769488 88669

JSON: /api/v1/satellites/61951 · /tle

For live sub-satellite position, see the globe view (requires WebGL).

§ Visibility from observer

Set your observer location to see the next 7 days of passes ≥ 10°. The values pass through the URL so the page stays shareable.

No JS? Fill the form by hand. The geolocation button needs JavaScript.